Time,TemperatureF,DewpointF,PressureIn,WindDirection,WindDirectionDegrees,WindSpeedMPH,WindSpeedGustMPH,Humidity,HourlyPrecipIn,Conditions,Clouds,dailyrainin,SolarRadiationWatts/m^2,SoftwareType,DateUTC
2013-05-22 00:00:00,72.8,65.9,29.84,SW,232,0.0,0.0,79,0.00,,---,0.00,0.00,VWS V14.01,2013-05-22 04:00:00,
2013-05-22 00:01:00,72.8,66.3,29.84,SW,232,0.0,0.0,80,0.00,,---,0.00,0.00,VWS V14.01,2013-05-22 04:01:00,
2013-05-22 00:06:00,72.6,66.4,29.84,SW,227,0.0,0.0,81,0.00,,---,0.00,0.00,VWS V14.01,2013-05-22 04:06:00,
2013-05-22 00:11:00,72.6,66.4,29.84,SSW,203,0.0,0.0,81,0.00,,---,0.00,0.00,VWS V14.01,2013-05-22 04:11:00,
2013-05-22 00:16:00,72.5,66.3,29.84,WSW,248,0.0,0.0,81,0.00,,---,0.00,0.00,VWS V14.01,2013-05-22 04:16:00,
2013-05-22 00:21:00,72.6,66.4,29.85,SW,221,0.0,0.0,81,0.00,,---,0.00,0.00,VWS V14.01,2013-05-22 04:21:00,
2013-05-22 00:26:00,72.6,66.4,29.85,SSW,213,0.0,0.0,81,0.00,,---,0.00,0.00,VWS V14.01,2013-05-22 04:26:00,
2013-05-22 00:31:00,72.5,66.3,29.85,SW,224,0.0,0.0,81,0.00,,---,0.00,0.00,VWS V14.01,2013-05-22 04:31:00,
2013-05-22 00:36:00,72.5,66.7,29.85,SW,232,0.0,0.0,82,0.00,,---,0.00,0.00,VWS V14.01,2013-05-22 04:36:00,
2013-05-22 00:41:00,72.4,66.6,29.85,SW,222,0.0,0.0,82,0.00,,---,0.00,0.00,VWS V14.01,2013-05-22 04:41:00,
2013-05-22 00:46:00,72.2,66.8,29.85,SW,227,0.0,0.0,83,0.00,,---,0.00,0.00,VWS V14.01,2013-05-22 04:46:00,
2013-05-22 00:51:00,72.1,66.7,29.85,SW,215,0.0,0.0,83,0.00,,---,0.00,0.00,VWS V14.01,2013-05-22 04:51:00,
2013-05-22 00:56:00,71.9,66.5,29.85,SW,219,0.0,0.0,83,0.00,,---,0.00,0.00,VWS V14.01,2013-05-22 04:56:00,
2013-05-22 01:01:00,71.9,66.5,29.85,SW,229,0.0,0.0,83,0.00,,---,0.00,0.00,VWS V14.01,2013-05-22 05:01:00,
2013-05-22 01:06:00,71.8,66.4,29.85,SW,217,0.0,0.0,83,0.00,,---,0.00,0.00,VWS V14.01,2013-05-22 05:06:00,
2013-05-22 01:11:00,71.8,66.4,29.86,WSW,243,0.0,0.0,83,0.00,,---,0.00,0.00,VWS V14.01,2013-05-22 05:11:00,
2013-05-22 01:16:00,71.6,66.5,29.86,WSW,238,0.0,0.0,84,0.00,,---,0.00,0.00,VWS V14.01,2013-05-22 05:16:00,
2013-05-22 01:21:00,71.5,66.4,29.86,SW,226,0.0,0.0,84,0.00,,---,0.00,0.00,VWS V14.01,2013-05-22 05:21:00,
2013-05-22 01:26:00,71.3,66.2,29.86,SW,225,0.0,0.0,84,0.00,,---,0.00,0.00,VWS V14.01,2013-05-22 05:26:00,
2013-05-22 01:31:00,71.0,66.3,29.85,SW,225,0.0,0.0,85,0.00,,---,0.00,0.00,VWS V14.01,2013-05-22 05:31:00,
2013-05-22 01:36:00,71.0,66.3,29.85,SW,222,0.0,0.0,85,0.00,,---,0.00,0.00,VWS V14.01,2013-05-22 05:36:00,
2013-05-22 01:41:00,70.9,66.2,29.85,SW,221,0.0,0.0,85,0.00,,---,0.00,0.00,VWS V14.01,2013-05-22 05:41:00,
2013-05-22 01:46:00,70.7,66.3,29.85,SW,229,0.0,0.0,86,0.00,,---,0.00,0.00,VWS V14.01,2013-05-22 05:46:00,
2013-05-22 01:51:00,70.5,66.1,29.85,WSW,244,0.0,0.0,86,0.00,,---,0.00,0.00,VWS V14.01,2013-05-22 05:51:00,
2013-05-22 01:56:00,70.3,66.2,29.84,WSW,245,0.0,0.0,87,0.00,,---,0.00,0.00,VWS V14.01,2013-05-22 05:56:00,
2013-05-22 02:01:00,70.3,65.9,29.84,WSW,244,0.0,0.0,86,0.00,,---,0.00,0.00,VWS V14.01,2013-05-22 06:01:00,
2013-05-22 02:06:00,70.3,65.6,29.84,SW,221,0.0,0.0,85,0.00,,---,0.00,0.00,VWS V14.01,2013-05-22 06:06:00,
2013-05-22 02:11:00,70.4,66.0,29.84,SW,221,0.0,0.0,86,0.00,,---,0.00,0.00,VWS V14.01,2013-05-22 06:11:00,
2013-05-22 02:16:00,70.7,66.3,29.84,SW,221,0.0,0.0,86,0.00,,---,0.00,0.00,VWS V14.01,2013-05-22 06:16:00,
2013-05-22 02:21:00,70.0,66.0,29.84,SW,229,0.0,0.0,87,0.00,,---,0.00,0.00,VWS V14.01,2013-05-22 06:21:00,
2013-05-22 02:26:00,69.8,66.1,29.83,SW,234,0.0,0.0,88,0.00,,---,0.00,0.00,VWS V14.01,2013-05-22 06:26:00,
2013-05-22 02:31:00,69.6,65.9,29.83,WSW,238,0.0,0.0,88,0.00,,---,0.00,0.00,VWS V14.01,2013-05-22 06:31:00,
2013-05-22 02:36:00,69.5,66.1,29.83,SSW,207,0.0,0.0,89,0.00,,---,0.00,0.00,VWS V14.01,2013-05-22 06:36:00,
2013-05-22 02:41:00,69.4,66.0,29.83,SSW,205,0.0,0.0,89,0.00,,---,0.00,0.00,VWS V14.01,2013-05-22 06:41:00,
2013-05-22 02:46:00,69.6,66.2,29.83,WSW,240,0.0,0.0,89,0.00,,---,0.00,0.00,VWS V14.01,2013-05-22 06:46:00,
2013-05-22 02:51:00,69.9,65.9,29.84,WSW,240,0.0,0.0,87,0.00,,---,0.00,0.00,VWS V14.01,2013-05-22 06:51:00,
2013-05-22 02:56:00,69.6,65.9,29.84,WSW,240,0.0,0.0,88,0.00,,---,0.00,0.00,VWS V14.01,2013-05-22 06:56:00,
2013-05-22 03:01:00,69.4,66.0,29.83,SW,232,0.0,0.0,89,0.00,,---,0.00,0.00,VWS V14.01,2013-05-22 07:01:00,
2013-05-22 03:06:00,69.2,65.8,29.83,SW,232,0.0,0.0,89,0.00,,---,0.00,0.00,VWS V14.01,2013-05-22 07:06:00,
2013-05-22 03:11:00,69.1,66.1,29.83,WSW,241,0.0,0.0,90,0.00,,---,0.00,0.00,VWS V14.01,2013-05-22 07:11:00,
2013-05-22 03:16:00,69.0,65.9,29.83,WSW,241,0.0,0.0,90,0.00,,---,0.00,0.00,VWS V14.01,2013-05-22 07:16:00,
2013-05-22 03:21:00,69.1,66.1,29.83,SW,216,0.0,0.0,90,0.00,,---,0.00,0.00,VWS V14.01,2013-05-22 07:21:00,
2013-05-22 03:26:00,69.1,66.1,29.83,SW,221,0.0,0.0,90,0.00,,---,0.00,0.00,VWS V14.01,2013-05-22 07:26:00,
2013-05-22 03:31:00,69.0,65.9,29.83,SW,224,0.0,0.0,90,0.00,,---,0.00,0.00,VWS V14.01,2013-05-22 07:31:00,
2013-05-22 03:36:00,69.1,66.1,29.84,WSW,240,0.0,0.0,90,0.00,,---,0.00,0.00,VWS V14.01,2013-05-22 07:36:00,
2013-05-22 03:41:00,69.0,65.9,29.84,SW,221,0.0,0.0,90,0.00,,---,0.00,0.00,VWS V14.01,2013-05-22 07:41:00,
2013-05-22 03:46:00,68.9,65.8,29.84,SW,234,0.0,0.0,90,0.00,,---,0.00,0.00,VWS V14.01,2013-05-22 07:46:00,
2013-05-22 03:51:00,68.8,66.1,29.84,SW,231,0.0,0.0,91,0.00,,---,0.00,0.00,VWS V14.01,2013-05-22 07:51:00,
2013-05-22 03:56:00,68.8,66.1,29.84,SW,225,0.0,0.0,91,0.00,,---,0.00,0.00,VWS V14.01,2013-05-22 07:56:00,
2013-05-22 04:01:00,68.8,65.8,29.83,SW,216,0.0,0.0,90,0.00,,---,0.00,0.00,VWS V14.01,2013-05-22 08:01:00,
2013-05-22 04:06:00,68.8,65.8,29.83,SW,225,0.0,0.0,90,0.00,,---,0.00,0.00,VWS V14.01,2013-05-22 08:06:00,
2013-05-22 04:11:00,68.8,66.1,29.84,SW,225,0.0,0.0,91,0.00,,---,0.00,0.00,VWS V14.01,2013-05-22 08:11:00,
2013-05-22 04:16:00,68.6,65.9,29.84,SW,223,0.0,0.0,91,0.00,,---,0.00,0.00,VWS V14.01,2013-05-22 08:16:00,
2013-05-22 04:21:00,68.5,66.1,29.83,SW,223,0.0,0.0,92,0.00,,---,0.00,0.00,VWS V14.01,2013-05-22 08:21:00,
2013-05-22 04:26:00,68.6,66.2,29.83,SW,221,0.0,0.0,92,0.00,,---,0.00,0.00,VWS V14.01,2013-05-22 08:26:00,
2013-05-22 04:31:00,68.6,65.9,29.83,SW,221,0.0,0.0,91,0.00,,---,0.00,0.00,VWS V14.01,2013-05-22 08:31:00,
2013-05-22 04:36:00,68.6,65.9,29.83,SW,221,0.0,0.0,91,0.00,,---,0.00,0.00,VWS V14.01,2013-05-22 08:36:00,
2013-05-22 04:41:00,68.6,65.9,29.83,SW,221,0.0,0.0,91,0.00,,---,0.00,0.00,VWS V14.01,2013-05-22 08:41:00,
2013-05-22 04:46:00,68.4,65.7,29.83,SW,221,0.0,0.0,91,0.00,,---,0.00,0.00,VWS V14.01,2013-05-22 08:46:00,
2013-05-22 04:51:00,68.7,65.3,29.84,SW,221,0.0,0.0,89,0.00,,---,0.00,0.00,VWS V14.01,2013-05-22 08:51:00,
2013-05-22 04:56:00,68.3,65.3,29.83,SW,221,0.0,0.0,90,0.00,,---,0.00,0.00,VWS V14.01,2013-05-22 08:56:00,
2013-05-22 05:01:00,68.5,65.5,29.84,SW,221,0.0,0.0,90,0.00,,---,0.00,0.00,VWS V14.01,2013-05-22 09:01:00,
2013-05-22 05:06:00,68.4,65.7,29.84,SW,221,0.0,0.0,91,0.00,,---,0.00,0.00,VWS V14.01,2013-05-22 09:06:00,
2013-05-22 05:11:00,68.4,65.7,29.84,SW,221,0.0,0.0,91,0.00,,---,0.00,0.00,VWS V14.01,2013-05-22 09:11:00,
2013-05-22 05:16:00,68.1,65.4,29.84,SW,221,0.0,0.0,91,0.00,,---,0.00,0.00,VWS V14.01,2013-05-22 09:16:00,
2013-05-22 05:21:00,67.8,65.4,29.85,SW,221,0.0,0.0,92,0.00,,---,0.00,0.00,VWS V14.01,2013-05-22 09:21:00,
2013-05-22 05:26:00,67.6,65.2,29.85,South,182,0.0,0.0,92,0.00,,---,0.00,0.00,VWS V14.01,2013-05-22 09:26:00,
2013-05-22 05:31:00,67.4,65.3,29.85,South,182,0.0,0.0,93,0.00,,---,0.00,0.00,VWS V14.01,2013-05-22 09:31:00,
2013-05-22 05:36:00,67.5,65.4,29.85,South,182,0.0,0.0,93,0.00,,---,0.00,0.00,VWS V14.01,2013-05-22 09:36:00,
2013-05-22 05:41:00,67.6,65.5,29.85,South,180,0.0,0.0,93,0.00,,---,0.00,0.00,VWS V14.01,2013-05-22 09:41:00,
2013-05-22 05:45:00,67.7,65.3,29.85,South,174,0.0,0.0,92,0.00,,---,0.00,5.00,VWS V14.01,2013-05-22 09:45:00,
2013-05-22 05:50:00,67.6,65.2,29.86,South,174,0.0,0.0,92,0.00,,---,0.00,7.00,VWS V14.01,2013-05-22 09:50:00,
2013-05-22 05:55:00,67.5,65.1,29.86,South,174,0.0,0.0,92,0.00,,---,0.00,11.00,VWS V14.01,2013-05-22 09:55:00,
2013-05-22 06:00:00,67.8,65.4,29.86,South,174,0.0,0.0,92,0.00,,---,0.00,14.00,VWS V14.01,2013-05-22 10:00:00,
2013-05-22 06:05:00,67.8,65.4,29.86,South,174,0.0,0.0,92,0.00,,---,0.00,14.00,VWS V14.01,2013-05-22 10:05:00,
2013-05-22 06:10:00,68.1,65.4,29.86,South,174,0.0,0.0,91,0.00,,---,0.00,18.00,VWS V14.01,2013-05-22 10:10:00,
2013-05-22 06:15:00,68.0,65.6,29.86,South,185,0.0,0.0,92,0.00,,---,0.00,18.00,VWS V14.01,2013-05-22 10:15:00,
2013-05-22 06:20:00,67.9,65.5,29.87,South,185,0.0,0.0,92,0.00,,---,0.00,12.00,VWS V14.01,2013-05-22 10:20:00,
2013-05-22 06:25:00,67.9,65.5,29.87,South,185,0.0,0.0,92,0.00,,---,0.00,14.00,VWS V14.01,2013-05-22 10:25:00,
2013-05-22 06:30:00,68.1,65.7,29.87,ENE,67,0.0,0.0,92,0.00,,---,0.00,9.00,VWS V14.01,2013-05-22 10:30:00,
2013-05-22 06:35:00,68.1,66.0,29.87,ESE,103,0.0,0.0,93,0.00,,---,0.00,9.00,VWS V14.01,2013-05-22 10:35:00,
2013-05-22 06:40:00,68.2,66.1,29.88,ESE,116,0.0,0.0,93,0.00,,---,0.00,9.00,VWS V14.01,2013-05-22 10:40:00,
2013-05-22 06:45:00,68.3,66.2,29.88,NE,55,0.0,0.0,93,0.00,,---,0.00,9.00,VWS V14.01,2013-05-22 10:45:00,
2013-05-22 06:50:00,68.3,66.2,29.88,East,80,0.0,0.0,93,0.00,,---,0.00,9.00,VWS V14.01,2013-05-22 10:50:00,
2013-05-22 06:55:00,68.7,66.3,29.88,ENE,74,0.0,0.0,92,0.00,,---,0.00,18.00,VWS V14.01,2013-05-22 10:55:00,
2013-05-22 07:00:00,68.6,66.2,29.88,SE,140,0.0,0.0,92,0.00,,---,0.00,25.00,VWS V14.01,2013-05-22 11:00:00,
2013-05-22 07:05:00,68.6,66.2,29.88,SSE,148,0.0,0.0,92,0.00,,---,0.00,18.00,VWS V14.01,2013-05-22 11:05:00,
2013-05-22 07:10:00,68.5,65.5,29.89,NE,47,0.0,0.0,90,0.00,,---,0.00,21.00,VWS V14.01,2013-05-22 11:10:00,
2013-05-22 07:15:00,67.8,63.1,29.90,NE,44,0.0,0.0,85,0.00,,---,0.00,28.00,VWS V14.01,2013-05-22 11:15:00,
2013-05-22 07:20:00,65.5,60.9,29.90,ESE,112,0.0,0.0,85,0.00,,---,0.00,33.00,VWS V14.01,2013-05-22 11:20:00,
2013-05-22 07:25:00,64.2,60.3,29.90,ENE,63,0.0,0.0,87,0.00,,---,0.00,33.00,VWS V14.01,2013-05-22 11:25:00,
2013-05-22 07:30:00,63.9,60.0,29.90,ENE,77,0.0,0.0,87,0.00,,---,0.00,37.00,VWS V14.01,2013-05-22 11:30:00,
2013-05-22 07:35:00,63.5,59.9,29.90,ENE,77,0.0,0.0,88,0.00,,---,0.00,37.00,VWS V14.01,2013-05-22 11:35:00,
2013-05-22 07:40:00,62.8,59.2,29.90,NNE,21,0.0,0.0,88,0.00,,---,0.00,35.00,VWS V14.01,2013-05-22 11:40:00,
2013-05-22 07:45:00,63.0,59.4,29.90,East,89,0.0,0.0,88,0.00,,---,0.00,35.00,VWS V14.01,2013-05-22 11:45:00,
2013-05-22 07:50:00,63.2,59.6,29.91,NE,44,0.0,0.0,88,0.00,,---,0.00,39.00,VWS V14.01,2013-05-22 11:50:00,
2013-05-22 07:55:00,63.3,59.4,29.91,NE,36,0.0,0.0,87,0.00,,---,0.00,37.00,VWS V14.01,2013-05-22 11:55:00,
2013-05-22 08:00:00,63.0,59.1,29.91,NE,41,0.0,0.0,87,0.00,,---,0.00,40.00,VWS V14.01,2013-05-22 12:00:00,
2013-05-22 08:05:00,62.9,59.3,29.91,ENE,70,0.0,0.0,88,0.00,,---,0.00,47.00,VWS V14.01,2013-05-22 12:05:00,
2013-05-22 08:10:00,62.4,58.8,29.91,NNE,28,0.0,0.0,88,0.00,,---,0.00,49.00,VWS V14.01,2013-05-22 12:10:00,
2013-05-22 08:15:00,62.5,58.9,29.91,NNE,24,0.0,0.0,88,0.00,,---,0.00,63.00,VWS V14.01,2013-05-22 12:15:00,
2013-05-22 08:20:00,62.4,58.8,29.91,NNE,22,0.0,0.0,88,0.00,,---,0.00,69.00,VWS V14.01,2013-05-22 12:20:00,
2013-05-22 08:25:00,62.6,59.0,29.91,NNE,13,0.0,0.0,88,0.00,,---,0.00,69.00,VWS V14.01,2013-05-22 12:25:00,
2013-05-22 08:30:00,62.9,59.3,29.91,ESE,105,0.0,0.0,88,0.00,,---,0.00,79.00,VWS V14.01,2013-05-22 12:30:00,
2013-05-22 08:35:00,62.6,59.0,29.91,ENE,59,0.0,0.0,88,0.00,,---,0.00,86.00,VWS V14.01,2013-05-22 12:35:00,
2013-05-22 08:40:00,62.6,59.0,29.91,ENE,63,0.0,0.0,88,0.00,,---,0.00,90.00,VWS V14.01,2013-05-22 12:40:00,
2013-05-22 08:45:00,62.9,59.3,29.91,ESE,115,0.0,0.0,88,0.00,,---,0.00,88.00,VWS V14.01,2013-05-22 12:45:00,
2013-05-22 08:50:00,62.8,59.2,29.91,East,80,0.0,0.0,88,0.00,,---,0.00,91.00,VWS V14.01,2013-05-22 12:50:00,
2013-05-22 08:55:00,62.7,59.1,29.91,NE,47,0.0,0.0,88,0.00,,---,0.00,90.00,VWS V14.01,2013-05-22 12:55:00,
2013-05-22 09:00:00,62.9,59.3,29.91,SE,127,0.0,0.0,88,0.00,,---,0.00,109.00,VWS V14.01,2013-05-22 13:00:00,
2013-05-22 09:05:00,62.7,59.1,29.91,SE,126,0.0,0.0,88,0.00,,---,0.00,111.00,VWS V14.01,2013-05-22 13:05:00,
2013-05-22 09:10:00,62.9,59.6,29.91,SSE,157,0.0,0.0,89,0.00,,---,0.00,102.00,VWS V14.01,2013-05-22 13:10:00,
2013-05-22 09:15:00,62.9,59.6,29.91,ESE,123,0.0,0.0,89,0.00,,---,0.00,121.00,VWS V14.01,2013-05-22 13:15:00,
2013-05-22 09:20:00,62.7,59.7,29.91,East,92,0.0,0.0,90,0.00,,---,0.00,102.00,VWS V14.01,2013-05-22 13:20:00,
2013-05-22 09:25:00,62.8,59.8,29.91,ESE,111,0.0,0.0,90,0.00,,---,0.00,128.00,VWS V14.01,2013-05-22 13:25:00,
2013-05-22 09:30:00,62.7,59.7,29.91,East,99,0.0,0.0,90,0.00,,---,0.00,149.00,VWS V14.01,2013-05-22 13:30:00,
2013-05-22 09:35:00,63.4,60.1,29.91,SE,144,0.0,0.0,89,0.00,,---,0.00,118.00,VWS V14.01,2013-05-22 13:35:00,
2013-05-22 09:40:00,62.0,59.3,29.92,SSE,159,0.0,0.0,91,0.00,,---,0.00,148.00,VWS V14.01,2013-05-22 13:40:00,
2013-05-22 09:45:00,61.5,59.2,29.91,SE,146,0.0,0.0,92,0.00,,---,0.00,172.00,VWS V14.01,2013-05-22 13:45:00,
2013-05-22 09:50:00,61.5,59.5,29.92,ESE,106,0.0,0.0,93,0.00,,---,0.00,160.00,VWS V14.01,2013-05-22 13:50:00,
2013-05-22 09:55:00,61.3,59.3,29.92,ESE,103,0.0,0.0,93,0.00,,---,0.00,179.00,VWS V14.01,2013-05-22 13:55:00,
2013-05-22 10:00:00,61.5,59.5,29.92,East,97,0.0,0.0,93,0.00,,---,0.00,185.00,VWS V14.01,2013-05-22 14:00:00,
2013-05-22 10:05:00,61.3,59.3,29.92,SE,128,0.0,0.0,93,0.00,,---,0.00,192.00,VWS V14.01,2013-05-22 14:05:00,
2013-05-22 10:10:00,61.8,59.8,29.92,South,186,0.0,0.0,93,0.00,,---,0.00,220.00,VWS V14.01,2013-05-22 14:10:00,
2013-05-22 10:15:00,62.6,59.9,29.92,SE,139,0.0,0.0,91,0.00,,---,0.00,230.00,VWS V14.01,2013-05-22 14:15:00,
2013-05-22 10:20:00,62.1,59.5,29.92,East,91,0.0,0.0,91,0.00,,---,0.00,255.00,VWS V14.01,2013-05-22 14:20:00,
2013-05-22 10:25:00,62.0,59.7,29.92,East,94,0.0,0.0,92,0.00,,---,0.00,255.00,VWS V14.01,2013-05-22 14:25:00,
2013-05-22 10:30:00,62.3,60.0,29.92,East,96,0.0,0.0,92,0.00,,---,0.00,264.00,VWS V14.01,2013-05-22 14:30:00,
2013-05-22 10:35:00,62.6,59.9,29.92,ESE,113,0.0,0.0,91,0.00,,---,0.00,239.00,VWS V14.01,2013-05-22 14:35:00,
2013-05-22 10:40:00,62.5,60.2,29.92,SE,139,0.0,0.0,92,0.00,,---,0.00,244.00,VWS V14.01,2013-05-22 14:40:00,
2013-05-22 10:45:00,63.0,60.3,29.92,SE,138,0.0,0.0,91,0.00,,---,0.00,272.00,VWS V14.01,2013-05-22 14:45:00,
2013-05-22 10:50:00,64.2,60.9,29.92,SSE,154,0.0,0.0,89,0.00,,---,0.00,281.00,VWS V14.01,2013-05-22 14:50:00,
2013-05-22 10:55:00,64.0,61.0,29.92,NNE,28,0.0,0.0,90,0.00,,---,0.00,283.00,VWS V14.01,2013-05-22 14:55:00,
2013-05-22 11:00:00,63.7,60.4,29.92,SE,146,0.0,0.0,89,0.00,,---,0.00,260.00,VWS V14.01,2013-05-22 15:00:00,
2013-05-22 11:05:00,64.2,61.2,29.91,SSE,149,0.0,0.0,90,0.00,,---,0.00,311.00,VWS V14.01,2013-05-22 15:05:00,
2013-05-22 11:10:00,64.8,61.5,29.91,SSE,165,0.0,0.0,89,0.00,,---,0.00,315.00,VWS V14.01,2013-05-22 15:10:00,
2013-05-22 11:15:00,65.2,61.6,29.91,ESE,109,0.0,0.0,88,0.00,,---,0.00,332.00,VWS V14.01,2013-05-22 15:15:00,
2013-05-22 11:20:00,65.0,61.4,29.91,ESE,109,0.0,0.0,88,0.00,,---,0.00,359.00,VWS V14.01,2013-05-22 15:20:00,
2013-05-22 11:25:00,66.7,62.0,29.91,NNW,341,0.0,0.0,85,0.00,,---,0.00,366.00,VWS V14.01,2013-05-22 15:25:00,
2013-05-22 11:30:00,65.3,61.7,29.91,ESE,122,0.0,0.0,88,0.00,,---,0.00,336.00,VWS V14.01,2013-05-22 15:30:00,
2013-05-22 11:35:00,65.6,62.0,29.91,SE,127,0.0,0.0,88,0.00,,---,0.00,406.00,VWS V14.01,2013-05-22 15:35:00,
2013-05-22 11:40:00,66.3,62.3,29.91,WSW,243,0.0,0.0,87,0.00,,---,0.00,434.00,VWS V14.01,2013-05-22 15:40:00,
2013-05-22 11:45:00,67.2,62.2,29.91,SW,234,0.0,0.0,84,0.00,,---,0.00,381.00,VWS V14.01,2013-05-22 15:45:00,
2013-05-22 11:50:00,68.1,63.4,29.91,WNW,294,0.0,0.0,85,0.00,,---,0.00,427.00,VWS V14.01,2013-05-22 15:50:00,
2013-05-22 11:55:00,69.3,63.6,29.91,NW,320,0.0,0.0,82,0.00,,---,0.00,422.00,VWS V14.01,2013-05-22 15:55:00,
2013-05-22 12:00:00,69.6,63.5,29.90,NW,320,0.0,0.0,81,0.00,,---,0.00,439.00,VWS V14.01,2013-05-22 16:00:00,
2013-05-22 12:05:00,67.6,62.9,29.90,ESE,113,0.0,0.0,85,0.00,,---,0.00,429.00,VWS V14.01,2013-05-22 16:05:00,
2013-05-22 12:10:00,67.5,63.2,29.90,ESE,121,0.0,0.0,86,0.00,,---,0.00,381.00,VWS V14.01,2013-05-22 16:10:00,
2013-05-22 12:15:00,68.3,63.6,29.90,SW,227,0.0,0.0,85,0.00,,---,0.00,353.00,VWS V14.01,2013-05-22 16:15:00,
2013-05-22 12:20:00,68.9,63.9,29.90,South,182,0.0,0.0,84,0.00,,---,0.00,431.00,VWS V14.01,2013-05-22 16:20:00,
2013-05-22 12:25:00,69.8,64.4,29.90,South,169,0.0,0.0,83,0.00,,---,0.00,345.00,VWS V14.01,2013-05-22 16:25:00,
2013-05-22 12:30:00,70.7,64.9,29.90,East,84,0.0,0.0,82,0.00,,---,0.00,302.00,VWS V14.01,2013-05-22 16:30:00,
2013-05-22 12:35:00,70.4,64.7,29.90,SW,228,0.0,0.0,82,0.00,,---,0.00,294.00,VWS V14.01,2013-05-22 16:35:00,
2013-05-22 12:40:00,70.9,65.1,29.90,SW,223,0.0,0.0,82,0.00,,---,0.00,334.00,VWS V14.01,2013-05-22 16:40:00,
2013-05-22 12:45:00,70.1,64.7,29.90,ESE,107,0.0,0.0,83,0.00,,---,0.00,367.00,VWS V14.01,2013-05-22 16:45:00,
2013-05-22 12:50:00,71.4,65.6,29.90,SW,228,0.0,0.0,82,0.00,,---,0.00,381.00,VWS V14.01,2013-05-22 16:50:00,
2013-05-22 12:55:00,71.4,65.3,29.89,SW,234,0.0,0.0,81,0.00,,---,0.00,411.00,VWS V14.01,2013-05-22 16:55:00,
2013-05-22 13:00:00,72.1,65.6,29.89,SW,232,0.0,0.0,80,0.00,,---,0.00,438.00,VWS V14.01,2013-05-22 17:00:00,
2013-05-22 13:05:00,72.9,65.7,29.89,SE,142,0.0,0.0,78,0.00,,---,0.00,438.00,VWS V14.01,2013-05-22 17:05:00,
2013-05-22 13:10:00,71.8,65.3,29.89,SSE,147,0.0,0.0,80,0.00,,---,0.00,431.00,VWS V14.01,2013-05-22 17:10:00,
2013-05-22 13:15:00,71.2,65.4,29.89,East,83,0.0,0.0,82,0.00,,---,0.00,387.00,VWS V14.01,2013-05-22 17:15:00,
2013-05-22 13:20:00,71.9,66.1,29.88,SSE,153,0.0,0.0,82,0.00,,---,0.00,385.00,VWS V14.01,2013-05-22 17:20:00,
2013-05-22 13:25:00,72.6,66.4,29.88,South,186,0.0,0.0,81,0.00,,---,0.00,339.00,VWS V14.01,2013-05-22 17:25:00,
2013-05-22 13:30:00,72.8,66.6,29.88,SSW,202,0.0,0.0,81,0.00,,---,0.00,350.00,VWS V14.01,2013-05-22 17:30:00,
2013-05-22 13:35:00,72.6,66.1,29.88,SE,139,0.0,0.0,80,0.00,,---,0.00,318.00,VWS V14.01,2013-05-22 17:35:00,
2013-05-22 13:40:00,72.3,66.2,29.88,SE,144,0.0,0.0,81,0.00,,---,0.00,295.00,VWS V14.01,2013-05-22 17:40:00,
2013-05-22 13:45:00,72.9,66.7,29.88,WSW,254,0.0,0.0,81,0.00,,---,0.00,253.00,VWS V14.01,2013-05-22 17:45:00,
2013-05-22 13:50:00,73.4,66.5,29.88,South,183,0.0,0.0,79,0.00,,---,0.00,269.00,VWS V14.01,2013-05-22 17:50:00,
2013-05-22 13:55:00,73.2,66.7,29.88,WSW,240,0.0,0.0,80,0.00,,---,0.00,292.00,VWS V14.01,2013-05-22 17:55:00,
2013-05-22 14:00:00,73.5,67.0,29.88,ESE,112,0.0,0.0,80,0.00,,---,0.00,301.00,VWS V14.01,2013-05-22 18:00:00,
2013-05-22 14:05:00,72.9,66.7,29.87,SSE,150,0.0,0.0,81,0.00,,---,0.00,357.00,VWS V14.01,2013-05-22 18:05:00,
2013-05-22 14:10:00,74.2,67.3,29.88,SSE,151,0.0,0.0,79,0.00,,---,0.00,301.00,VWS V14.01,2013-05-22 18:10:00,
2013-05-22 14:15:00,74.0,67.1,29.87,SE,126,0.0,0.0,79,0.00,,---,0.00,336.00,VWS V14.01,2013-05-22 18:15:00,
2013-05-22 14:20:00,74.5,67.6,29.87,SSE,153,0.0,0.0,79,0.00,,---,0.00,413.00,VWS V14.01,2013-05-22 18:20:00,
2013-05-22 14:25:00,74.5,67.6,29.87,SE,137,0.0,0.0,79,0.00,,---,0.00,526.00,VWS V14.01,2013-05-22 18:25:00,
2013-05-22 14:30:00,74.6,67.7,29.87,East,93,0.0,0.0,79,0.00,,---,0.00,591.00,VWS V14.01,2013-05-22 18:30:00,
2013-05-22 14:35:00,75.5,68.2,29.87,WSW,241,0.0,0.0,78,0.00,,---,0.00,557.00,VWS V14.01,2013-05-22 18:35:00,
2013-05-22 14:40:00,75.7,68.0,29.87,South,171,0.0,0.0,77,0.00,,---,0.00,619.00,VWS V14.01,2013-05-22 18:40:00,
2013-05-22 14:45:00,76.2,68.1,29.87,SE,137,0.0,0.0,76,0.00,,---,0.00,603.00,VWS V14.01,2013-05-22 18:45:00,
2013-05-22 14:50:00,75.5,68.2,29.87,SSE,149,0.0,0.0,78,0.00,,---,0.00,513.00,VWS V14.01,2013-05-22 18:50:00,
2013-05-22 14:55:00,75.7,68.4,29.86,SE,144,0.0,0.0,78,0.00,,---,0.00,828.00,VWS V14.01,2013-05-22 18:55:00,
2013-05-22 15:00:00,76.1,68.4,29.86,SW,221,0.0,0.0,77,0.00,,---,0.00,543.00,VWS V14.01,2013-05-22 19:00:00,
2013-05-22 15:05:00,77.4,69.2,29.86,SE,144,0.0,0.0,76,0.00,,---,0.00,979.00,VWS V14.01,2013-05-22 19:05:00,
2013-05-22 15:10:00,77.5,69.3,29.86,SE,138,0.0,0.0,76,0.00,,---,0.00,868.00,VWS V14.01,2013-05-22 19:10:00,
2013-05-22 15:15:00,77.0,68.9,29.86,East,96,0.0,0.0,76,0.00,,---,0.00,870.00,VWS V14.01,2013-05-22 19:15:00,
2013-05-22 15:20:00,79.9,70.1,29.85,West,280,0.0,0.0,72,0.00,,---,0.00,879.00,VWS V14.01,2013-05-22 19:20:00,
2013-05-22 15:25:00,80.9,70.2,29.85,SSW,196,0.0,0.0,70,0.00,,---,0.00,793.00,VWS V14.01,2013-05-22 19:25:00,
2013-05-22 15:30:00,78.8,69.0,29.84,SE,146,0.0,0.0,72,0.00,,---,0.00,788.00,VWS V14.01,2013-05-22 19:30:00,
2013-05-22 15:35:00,78.5,69.1,29.84,ESE,118,0.0,0.0,73,0.00,,---,0.00,717.00,VWS V14.01,2013-05-22 19:35:00,
2013-05-22 15:40:00,79.0,70.4,29.84,SE,142,0.0,0.0,75,0.00,,---,0.00,745.00,VWS V14.01,2013-05-22 19:40:00,
2013-05-22 15:45:00,79.4,70.0,29.84,WSW,240,0.0,0.0,73,0.00,,---,0.00,735.00,VWS V14.01,2013-05-22 19:45:00,
2013-05-22 15:50:00,80.5,70.7,29.84,SSE,148,0.0,0.0,72,0.00,,---,0.00,717.00,VWS V14.01,2013-05-22 19:50:00,
2013-05-22 15:55:00,81.5,70.8,29.84,SSW,207,0.0,0.0,70,0.00,,---,0.00,696.00,VWS V14.01,2013-05-22 19:55:00,
2013-05-22 16:00:00,80.6,69.9,29.84,SSE,156,0.0,0.0,70,0.00,,---,0.00,687.00,VWS V14.01,2013-05-22 20:00:00,
2013-05-22 16:05:00,80.7,70.4,29.84,SSE,157,0.0,0.0,71,0.00,,---,0.00,598.00,VWS V14.01,2013-05-22 20:05:00,
2013-05-22 16:10:00,81.6,70.9,29.83,SSW,200,0.0,0.0,70,0.00,,---,0.00,605.00,VWS V14.01,2013-05-22 20:10:00,
2013-05-22 16:15:00,82.5,70.9,29.83,SSW,206,0.0,0.0,68,0.00,,---,0.00,608.00,VWS V14.01,2013-05-22 20:15:00,
2013-05-22 16:20:00,81.8,70.6,29.83,WSW,248,0.0,0.0,69,0.00,,---,0.00,557.00,VWS V14.01,2013-05-22 20:20:00,
2013-05-22 16:25:00,82.2,71.0,29.83,WSW,243,0.0,0.0,69,0.00,,---,0.00,566.00,VWS V14.01,2013-05-22 20:25:00,
2013-05-22 16:30:00,82.1,70.5,29.83,SW,227,0.0,0.0,68,0.00,,---,0.00,480.00,VWS V14.01,2013-05-22 20:30:00,
2013-05-22 16:35:00,81.8,70.6,29.83,SE,132,0.0,0.0,69,0.00,,---,0.00,390.00,VWS V14.01,2013-05-22 20:35:00,
2013-05-22 16:40:00,82.0,71.3,29.83,SW,219,0.0,0.0,70,0.00,,---,0.00,392.00,VWS V14.01,2013-05-22 20:40:00,
2013-05-22 16:45:00,82.3,70.7,29.82,SW,229,0.0,0.0,68,0.00,,---,0.00,362.00,VWS V14.01,2013-05-22 20:45:00,
2013-05-22 16:50:00,82.2,71.0,29.82,SW,232,0.0,0.0,69,0.00,,---,0.00,448.00,VWS V14.01,2013-05-22 20:50:00,
2013-05-22 16:55:00,82.4,71.2,29.82,SE,132,0.0,0.0,69,0.00,,---,0.00,441.00,VWS V14.01,2013-05-22 20:55:00,
2013-05-22 17:00:00,82.4,71.2,29.82,SSE,165,0.0,0.0,69,0.00,,---,0.00,413.00,VWS V14.01,2013-05-22 21:00:00,
2013-05-22 17:05:00,82.2,71.0,29.82,West,263,0.0,0.0,69,0.00,,---,0.00,438.00,VWS V14.01,2013-05-22 21:05:00,
2013-05-22 17:10:00,82.1,70.9,29.82,SSW,198,0.0,0.0,69,0.00,,---,0.00,413.00,VWS V14.01,2013-05-22 21:10:00,
2013-05-22 17:15:00,82.0,70.8,29.82,SSE,150,0.0,0.0,69,0.00,,---,0.00,350.00,VWS V14.01,2013-05-22 21:15:00,
2013-05-22 17:20:00,81.8,70.6,29.82,SSE,152,0.0,0.0,69,0.00,,---,0.00,320.00,VWS V14.01,2013-05-22 21:20:00,
2013-05-22 17:25:00,81.8,71.1,29.82,SE,144,0.0,0.0,70,0.00,,---,0.00,399.00,VWS V14.01,2013-05-22 21:25:00,
2013-05-22 17:30:00,82.0,71.3,29.82,East,95,0.0,0.0,70,0.00,,---,0.00,350.00,VWS V14.01,2013-05-22 21:30:00,
2013-05-22 17:35:00,82.0,70.8,29.82,East,88,0.0,0.0,69,0.00,,---,0.00,315.00,VWS V14.01,2013-05-22 21:35:00,
2013-05-22 17:40:00,81.1,70.4,29.81,East,99,0.0,0.0,70,0.00,,---,0.00,350.00,VWS V14.01,2013-05-22 21:40:00,
2013-05-22 17:45:00,81.6,70.9,29.81,SE,136,0.0,0.0,70,0.00,,---,0.00,346.00,VWS V14.01,2013-05-22 21:45:00,
2013-05-22 17:50:00,81.2,70.5,29.81,South,178,0.0,0.0,70,0.00,,---,0.00,327.00,VWS V14.01,2013-05-22 21:50:00,
2013-05-22 17:55:00,80.2,69.9,29.81,SE,130,0.0,0.0,71,0.00,,---,0.00,316.00,VWS V14.01,2013-05-22 21:55:00,
2013-05-22 18:00:00,79.9,69.7,29.81,SSE,150,0.0,0.0,71,0.00,,---,0.00,313.00,VWS V14.01,2013-05-22 22:00:00,
2013-05-22 18:05:00,79.4,69.6,29.80,SSE,161,0.0,0.0,72,0.00,,---,0.00,265.00,VWS V14.01,2013-05-22 22:05:00,
2013-05-22 18:10:00,79.1,69.7,29.81,ENE,67,0.0,0.0,73,0.00,,---,0.00,229.00,VWS V14.01,2013-05-22 22:10:00,
2013-05-22 18:15:00,79.1,69.3,29.81,SE,142,0.0,0.0,72,0.00,,---,0.00,237.00,VWS V14.01,2013-05-22 22:15:00,
2013-05-22 18:20:00,79.1,69.3,29.81,East,94,0.0,0.0,72,0.00,,---,0.00,237.00,VWS V14.01,2013-05-22 22:20:00,
2013-05-22 18:25:00,78.5,69.1,29.81,East,94,0.0,0.0,73,0.00,,---,0.00,239.00,VWS V14.01,2013-05-22 22:25:00,
2013-05-22 18:30:00,78.2,68.8,29.81,East,98,0.0,0.0,73,0.00,,---,0.00,232.00,VWS V14.01,2013-05-22 22:30:00,
2013-05-22 18:35:00,78.5,69.1,29.81,ESE,105,0.0,0.0,73,0.00,,---,0.00,218.00,VWS V14.01,2013-05-22 22:35:00,
2013-05-22 18:40:00,78.5,69.1,29.81,ESE,107,0.0,0.0,73,0.00,,---,0.00,209.00,VWS V14.01,2013-05-22 22:40:00,
2013-05-22 18:45:00,78.2,69.2,29.81,ENE,69,0.0,0.0,74,0.00,,---,0.00,185.00,VWS V14.01,2013-05-22 22:45:00,
2013-05-22 18:50:00,78.4,69.0,29.82,East,97,0.0,0.0,73,0.00,,---,0.00,171.00,VWS V14.01,2013-05-22 22:50:00,
2013-05-22 18:55:00,77.8,68.9,29.82,ESE,123,0.0,0.0,74,0.00,,---,0.00,158.00,VWS V14.01,2013-05-22 22:55:00,
2013-05-22 19:00:00,77.4,68.9,29.82,ESE,122,0.0,0.0,75,0.00,,---,0.00,139.00,VWS V14.01,2013-05-22 23:00:00,
2013-05-22 19:05:00,77.5,69.0,29.82,ESE,107,0.0,0.0,75,0.00,,---,0.00,121.00,VWS V14.01,2013-05-22 23:05:00,
2013-05-22 19:10:00,77.5,69.0,29.82,SE,126,0.0,0.0,75,0.00,,---,0.00,81.00,VWS V14.01,2013-05-22 23:10:00,
2013-05-22 19:15:00,77.3,69.2,29.82,ESE,106,0.0,0.0,76,0.00,,---,0.00,74.00,VWS V14.01,2013-05-22 23:15:00,
2013-05-22 19:20:00,77.2,69.1,29.82,ESE,122,0.0,0.0,76,0.00,,---,0.00,53.00,VWS V14.01,2013-05-22 23:20:00,
2013-05-22 19:25:00,77.1,69.0,29.82,SSE,152,0.0,0.0,76,0.00,,---,0.00,47.00,VWS V14.01,2013-05-22 23:25:00,
2013-05-22 19:30:00,76.9,68.8,29.82,ESE,121,0.0,0.0,76,0.00,,---,0.00,44.00,VWS V14.01,2013-05-22 23:30:00,
2013-05-22 19:35:00,76.5,68.8,29.82,SE,130,0.0,0.0,77,0.00,,---,0.00,33.00,VWS V14.01,2013-05-22 23:35:00,
2013-05-22 19:40:00,76.7,68.6,29.82,East,92,0.0,0.0,76,0.00,,---,0.00,26.00,VWS V14.01,2013-05-22 23:40:00,
2013-05-22 19:45:00,76.5,68.8,29.82,ESE,107,0.0,0.0,77,0.00,,---,0.00,23.00,VWS V14.01,2013-05-22 23:45:00,
2013-05-22 19:50:00,76.6,68.9,29.82,ESE,107,0.0,0.0,77,0.00,,---,0.00,18.00,VWS V14.01,2013-05-22 23:50:00,
2013-05-22 19:55:00,76.5,68.8,29.82,ESE,107,0.0,0.0,77,0.00,,---,0.00,14.00,VWS V14.01,2013-05-22 23:55:00,
2013-05-22 20:00:00,76.6,68.9,29.82,ESE,107,0.0,0.0,77,0.00,,---,0.00,11.00,VWS V14.01,2013-05-23 00:00:00,
2013-05-22 20:05:00,76.5,68.4,29.82,East,101,0.0,0.0,76,0.00,,---,0.00,7.00,VWS V14.01,2013-05-23 00:05:00,
2013-05-22 20:10:00,76.3,68.6,29.82,East,101,0.0,0.0,77,0.00,,---,0.00,0.00,VWS V14.01,2013-05-23 00:10:00,
2013-05-22 20:15:00,76.0,68.3,29.82,East,101,0.0,0.0,77,0.00,,---,0.00,0.00,VWS V14.01,2013-05-23 00:15:00,
2013-05-22 20:20:00,76.0,68.3,29.82,East,101,0.0,0.0,77,0.00,,---,0.00,0.00,VWS V14.01,2013-05-23 00:20:00,
2013-05-22 20:25:00,76.2,68.5,29.83,East,101,0.0,0.0,77,0.00,,---,0.00,0.00,VWS V14.01,2013-05-23 00:25:00,
2013-05-22 20:30:00,76.0,68.3,29.82,East,101,0.0,0.0,77,0.00,,---,0.00,0.00,VWS V14.01,2013-05-23 00:30:00,
2013-05-22 20:35:00,75.8,68.5,29.83,East,101,0.0,0.0,78,0.00,,---,0.00,0.00,VWS V14.01,2013-05-23 00:35:00,
2013-05-22 20:40:00,75.9,68.6,29.83,East,101,0.0,0.0,78,0.00,,---,0.00,0.00,VWS V14.01,2013-05-23 00:40:00,
2013-05-22 20:45:00,76.4,68.7,29.83,East,101,0.0,0.0,77,0.00,,---,0.00,0.00,VWS V14.01,2013-05-23 00:45:00,
2013-05-22 20:50:00,76.2,68.1,29.83,East,101,0.0,0.0,76,0.00,,---,0.00,0.00,VWS V14.01,2013-05-23 00:50:00,
2013-05-22 20:55:00,75.9,68.2,29.84,East,101,0.0,0.0,77,0.00,,---,0.00,0.00,VWS V14.01,2013-05-23 00:55:00,
2013-05-22 21:00:00,75.3,68.3,29.84,East,101,0.0,0.0,79,0.00,,---,0.00,0.00,VWS V14.01,2013-05-23 01:00:00,
2013-05-22 21:05:00,74.7,68.1,29.84,East,101,0.0,0.0,80,0.00,,---,0.00,0.00,VWS V14.01,2013-05-23 01:05:00,
2013-05-22 21:10:00,74.6,68.4,29.84,East,101,0.0,0.0,81,0.00,,---,0.00,0.00,VWS V14.01,2013-05-23 01:10:00,
2013-05-22 21:15:00,74.6,68.0,29.85,East,101,0.0,0.0,80,0.00,,---,0.00,0.00,VWS V14.01,2013-05-23 01:15:00,
2013-05-22 21:20:00,74.6,68.4,29.84,East,101,0.0,0.0,81,0.00,,---,0.00,0.00,VWS V14.01,2013-05-23 01:20:00,
2013-05-22 21:25:00,74.6,68.8,29.85,East,101,0.0,0.0,82,0.00,,---,0.00,0.00,VWS V14.01,2013-05-23 01:25:00,
2013-05-22 21:30:00,74.5,68.3,29.85,East,101,0.0,0.0,81,0.00,,---,0.00,0.00,VWS V14.01,2013-05-23 01:30:00,
2013-05-22 21:35:00,74.5,68.7,29.85,East,101,0.0,0.0,82,0.00,,---,0.00,0.00,VWS V14.01,2013-05-23 01:35:00,
2013-05-22 21:40:00,74.4,67.8,29.86,East,101,0.0,0.0,80,0.00,,---,0.00,0.00,VWS V14.01,2013-05-23 01:40:00,
2013-05-22 21:45:00,74.1,68.3,29.86,East,101,0.0,0.0,82,0.00,,---,0.00,0.00,VWS V14.01,2013-05-23 01:45:00,
2013-05-22 21:50:00,73.8,68.3,29.86,East,101,0.0,0.0,83,0.00,,---,0.00,0.00,VWS V14.01,2013-05-23 01:50:00,
2013-05-22 21:55:00,74.1,68.3,29.86,East,101,0.0,0.0,82,0.00,,---,0.00,0.00,VWS V14.01,2013-05-23 01:55:00,
2013-05-22 22:00:00,74.2,68.7,29.86,WSW,255,0.0,0.0,83,0.00,,---,0.00,0.00,VWS V14.01,2013-05-23 02:00:00,
2013-05-22 22:05:00,74.4,69.3,29.86,WSW,247,0.0,0.0,84,0.00,,---,0.00,0.00,VWS V14.01,2013-05-23 02:05:00,
2013-05-22 22:10:00,74.8,69.7,29.86,WSW,253,0.0,0.0,84,0.00,,---,0.00,0.00,VWS V14.01,2013-05-23 02:10:00,
2013-05-22 22:15:00,75.4,69.9,29.86,South,180,0.0,0.0,83,0.00,,---,0.00,0.00,VWS V14.01,2013-05-23 02:15:00,
2013-05-22 22:20:00,75.8,69.9,29.86,WSW,244,0.0,0.0,82,0.00,,---,0.00,0.00,VWS V14.01,2013-05-23 02:20:00,
2013-05-22 22:25:00,76.0,70.1,29.86,SW,235,0.0,0.0,82,0.00,,---,0.00,0.00,VWS V14.01,2013-05-23 02:25:00,
2013-05-22 22:30:00,76.0,69.8,29.86,SSW,213,0.0,0.0,81,0.00,,---,0.00,0.00,VWS V14.01,2013-05-23 02:30:00,
2013-05-22 22:35:00,76.0,69.8,29.87,SW,232,0.0,0.0,81,0.00,,---,0.00,0.00,VWS V14.01,2013-05-23 02:35:00,
2013-05-22 22:40:00,76.0,69.8,29.87,WSW,246,0.0,0.0,81,0.00,,---,0.00,0.00,VWS V14.01,2013-05-23 02:40:00,
2013-05-22 22:45:00,75.8,69.6,29.87,SW,225,0.0,0.0,81,0.00,,---,0.00,0.00,VWS V14.01,2013-05-23 02:45:00,
2013-05-22 22:49:00,75.7,69.8,29.87,WSW,240,0.0,0.0,82,0.00,,---,0.00,0.00,VWS V14.01,2013-05-23 02:49:00,
2013-05-22 22:54:00,75.7,69.8,29.87,West,271,0.0,0.0,82,0.00,,---,0.00,0.00,VWS V14.01,2013-05-23 02:54:00,
2013-05-22 22:59:00,75.6,69.7,29.87,SSW,213,0.0,0.0,82,0.00,,---,0.00,0.00,VWS V14.01,2013-05-23 02:59:00,
2013-05-22 23:04:00,75.3,69.8,29.87,SW,227,0.0,0.0,83,0.00,,---,0.00,0.00,VWS V14.01,2013-05-23 03:04:00,
2013-05-22 23:09:00,75.2,69.7,29.87,WSW,252,0.0,0.0,83,0.00,,---,0.00,0.00,VWS V14.01,2013-05-23 03:09:00,
2013-05-22 23:14:00,75.1,69.6,29.86,SSW,209,0.0,0.0,83,0.00,,---,0.00,0.00,VWS V14.01,2013-05-23 03:14:00,
2013-05-22 23:19:00,74.9,69.4,29.86,SW,219,0.0,0.0,83,0.00,,---,0.00,0.00,VWS V14.01,2013-05-23 03:19:00,
2013-05-22 23:24:00,74.8,69.7,29.86,WNW,290,0.0,0.0,84,0.00,,---,0.00,0.00,VWS V14.01,2013-05-23 03:24:00,
2013-05-22 23:29:00,74.6,69.4,29.86,SW,236,0.0,0.0,84,0.00,,---,0.00,0.00,VWS V14.01,2013-05-23 03:29:00,
2013-05-22 23:34:00,74.4,69.3,29.86,SW,218,0.0,0.0,84,0.00,,---,0.00,0.00,VWS V14.01,2013-05-23 03:34:00,
2013-05-22 23:39:00,74.4,69.3,29.86,WSW,240,0.0,0.0,84,0.00,,---,0.00,0.00,VWS V14.01,2013-05-23 03:39:00,
2013-05-22 23:44:00,74.3,69.2,29.86,SW,222,0.0,0.0,84,0.00,,---,0.00,0.00,VWS V14.01,2013-05-23 03:44:00,
2013-05-22 23:49:00,74.2,69.1,29.86,WSW,242,0.0,0.0,84,0.00,,---,0.00,0.00,VWS V14.01,2013-05-23 03:49:00,
2013-05-22 23:54:00,74.2,69.1,29.86,SW,221,0.0,0.0,84,0.00,,---,0.00,0.00,VWS V14.01,2013-05-23 03:54:00,
2013-05-22 23:59:00,73.9,69.1,29.86,SW,223,0.0,0.0,85,0.00,,---,0.00,0.00,VWS V14.01,2013-05-23 03:59:00,